Location: Ajisawe
(8.4333°N, 4.3833°E)
Time: 22:48:01
(UTC+00:00)

A-11 Canister half - Pass Details

Date: 25 April 2021
Orbit: 1514 x 1685 km, 47.2° (Epoch: 14 May)

Event Time Altitude Azimuth Distance (km) Brightness Sun altitude
Rises 18:01:51 0° 247° (WSW) 4,656 12.5 -3.2°
Reaches altitude 10° 18:05:24 10° 258° (WSW) 3,668 12.2 -4.1°
Maximum altitude 18:13:08 30° 316° (NW) 2,451 10.9 -5.9°
Drops below altitude 10° 18:20:57 10° 14° (NNE) 3,698 11.0 -7.8°
Sets 18:24:35 0° 25° (NNE) 4,700 11.5 -8.6°
